sat.trackr.live / text

‹ back to catalog

O3B FM17

NORAD 44114 · 2019-020C

PAYLOAD ACTIVE UNKNOWN

§ Identity

Operator
Country
O3B
Launch date
2019-04-04
Launch site
FRGUI
Launch vehicle
Mass (kg)
RCS (m²)

Purposes: comms

External: N2YO · Heavens-Above · Gunter

§ Orbital elements

Epoch: 2026-05-24T22:22:03.797760Z

Period
287.93 min
Inclination
0.0330°
Eccentricity
0.0002597
Mean motion
5.00115503 rev/d
Perigee alt
8,062.1 km
Apogee alt
8,069.6 km
Semi-major
14,444.0 km
B*
0.0000e+0
RAAN
2.6716°
Arg perigee
58.5500°
Mean anomaly
298.8038°
Rev number
13,036

§ Raw data

O3B FM171 44114U 19020C   26144.93198840 -.00000024  00000+0  00000+0 0  99902 44114   0.0330   2.6716 0002597  58.5500 298.8038  5.00115503130361

JSON: /api/v1/satellites/44114 · /tle

For live sub-satellite position, see the globe view (requires WebGL).

§ Visibility from observer

Set your observer location to see the next 7 days of passes ≥ 10°. The values pass through the URL so the page stays shareable.

No JS? Fill the form by hand. The geolocation button needs JavaScript.